Location: Chillicothe
(39.7950°N, 93.5520°W)
Time: 05:34:21
(UTC-06:00)

BEESAT - Pass Details

Date: 19 November 2019
Orbit: 700 x 709 km, 98.6° (Epoch: 05 December)

Event Time Altitude Azimuth Distance (km) Brightness Sun altitude
Rises 04:17:57 0° 148° (SSE) 3,076 ? -31.6°
Reaches altitude 10° 04:20:17 10° 141° (SE) 2,161 ? -31.1°
Maximum altitude 04:24:44 43° 71° (ENE) 988 ? -30.3°
Enters shadow 04:25:41 38° 40° (NE) 1,071 ? -30.1°
